User: anonymous   Login
Location: Boca do Mato
(22.9085°S, 43.2930°W)
Time: 21:12:53
(UTC+00:00)
Language:

CORIOLIS - Orbit

View from above orbital plane
View from above orbital plane
View from above satellite
View from above satellite

Ground track
Ground track

The orbit data is extracted from the following two-line orbital elements,

1 27640U 03001A   20270.47420675  .00000004  00000-0  22806-4 0  9995
2 27640  98.7276 278.3744 0015251 105.3353  52.1024 14.19047410917742
Epoch (UTC): 26 September 2020 11:22:51
Eccentricity: 0.0015251
inclination: 98.7276°
perigee height: 817 km
apogee height: 839 km
right ascension of ascending node: 278.3744°
argument of perigee: 105.3353°
revolutions per day: 14.19047410
mean anomaly at epoch: 52.1024°
orbit number at epoch: 91774

The dashed part of the orbit path shows where the satellite is in the earth's shadow,  

DLR